This demonstration page uses our WeatherBlox Daily Observations layout. Learn more.

Left ArrowRight Arrow

44.8408, -93.29828

Hourly Observations for March 30, 2018

Temp ( °F °C ) Dew Point ( °F °C ) Humidity (%) Winds ( mph kmh ) Pressure ( in mb ) Visibility ( mi km ) Precip ( " mm )
12:53 am 00:53 Clear 31 -0.6 18 -7.8 59 59 NNW 9 15 30.24 1024 10 16 0.00 0.00
1:53 am 01:53 Clear 29 -1.7 18 -7.8 63 63 WNW 3 6 30.24 1024 10 16 0.00 0.00
2:53 am 02:53 Clear 30 -1.1 18 -7.8 61 61 Calm 30.22 1024 10 16 0.00 0.00
3:53 am 03:53 Mostly Clear 27 -2.8 19 -7.2 72 72 NW 3 6 30.22 1023 10 16 0.00 0.00
4:53 am 04:53 Mostly Clear 25 -3.9 19 -7.2 78 78 WNW 3 6 30.22 1023 10 16 0.00 0.00
5:53 am 05:53 Partly Cloudy 26 -3.3 19 -7.2 75 75 Calm 30.22 1024 10 16 0.00 0.00
6:53 am 06:53 Mostly Clear 26 -3.3 19 -7.2 75 75 SW 5 7 30.23 1024 10 16 0.00 0.00
7:53 am 07:53 Mostly Sunny 27 -2.8 21 -6.1 78 78 SSW 3 6 30.23 1024 10 16 0.00 0.00
8:53 am 08:53 Mostly Sunny 30 -1.1 21 -6.1 69 69 S 6 9 30.22 1023 10 16 0.00 0.00
9:53 am 09:53 Cloudy 33 0.6 21 -6.1 61 61 SSW 7 11 30.21 1023 10 16 0.00 0.00
10:53 am 10:53 Cloudy 38 3.3 22 -5.6 52 52 SW 12 19 30.19 1023 10 16 0.00 0.00
11:53 am 11:53 Cloudy 38 3.3 24 -4.4 57 57 WSW 17 28 30.18 1022 10 16 0.00 0.00
12:53 pm 12:53 Mostly Cloudy 40 4.4 28 -2.2 63 63 SW 17 28 30.16 1021 9 14 0.00 0.03
1:53 pm 13:53 Cloudy 39 3.9 28 -2.2 65 65 W 14 22 30.15 1021 10 16 0.00 0.00
2:53 pm 14:53 Cloudy 39 3.9 29 -1.7 67 67 W 12 19 30.14 1021 10 16 0.00 0.00
3:53 pm 15:53 Mostly Cloudy 40 4.4 29 -1.7 65 65 W 14 22 30.13 1020 10 16 0.00 0.00
4:38 pm 16:38 Mostly Cloudy 39 3.9 29 -1.7 67 67 NW 14 22 30.12 1020 10 16 0.00 0.00
4:53 pm 16:53 Mostly Cloudy 38 3.3 29 -1.7 70 70 NNW 15 24 30.13 1020 10 16 0.00 0.00
5:53 pm 17:53 Mostly Cloudy 38 3.3 28 -2.2 68 68 N 9 15 30.12 1020 10 16 0.00 0.00
6:53 pm 18:53 Mostly Cloudy 35 1.7 26 -3.3 70 70 N 8 13 30.11 1020 10 16 0.00 0.00
7:53 pm 19:53 Cloudy 34 1.1 26 -3.3 73 73 E 8 13 30.10 1019 10 16 0.00 0.00
8:53 pm 20:53 Cloudy 33 0.6 25 -3.9 72 72 E 8 13 30.09 1019 10 16 0.00 0.00
9:53 pm 21:53 Cloudy 32 0 25 -3.9 75 75 E 9 15 30.06 1018 10 16 0.00 0.00
10:36 pm 22:36 Cloudy with Light Snow 32 0 26 -3.3 79 79 E 10 17 30.06 1018 3 4 0.00 0.03
10:53 pm 22:53 Cloudy with Light Snow 31 -0.6 28 -2.2 89 89 E 8 13 30.04 1017 2 2 0.01 0.25
11:29 pm 23:29 Cloudy with Light Snow 30 -1.1 29 -1.7 96 96 ESE 9 15 30.03 1017 2 2 0.02 0.51
11:53 pm 23:53 Cloudy with Light Snow 30 -1.1 30 -1.1 100 100 E 9 15 29.98 1015 2 2 0.04 1.02

Powered by AerisWeather